Location: Cruquius
(52.3348°N, 4.6319°E)
Time: 20:57:42
(UTC+00:00)

Cosmos 1269 Rocket - Pass Details

Date: 12 May 2021
Orbit: 773 x 778 km, 74.1° (Epoch: 23 June)

Event Time Altitude Azimuth Distance (km) Brightness Sun altitude
Rises 23:29:19 0° 335° (NNW) 3,269 8.5 -19.3°
Reaches altitude 10° 23:31:45 10° 339° (NNW) 2,337 7.6 -19.3°
Maximum altitude 23:37:01 61° 60° (ENE) 884 4.4 -19.3°
Enters shadow 23:40:05 25° 133° (SE) 1,540 5.2 -19.3°
